This is the latest recevied weather packets stored in our database for station/object KD2RHT-13. If no packets are shown the sender has not sent any weather packets the latest 10 day(s).
| Time | Temp. | Humidity | Pressure | Rain* | Wind** | Luminosity | Snow |
|---|---|---|---|---|---|---|---|
| 1777908370 | 18.33° C | 56% | 1009 hPa | 0 mm | - | 807 W/m² | - |
| 1777908066 | 18.89° C | 56% | 1008.7 hPa | 0 mm | - | 805 W/m² | - |
| 1777907762 | 17.78° C | 57% | 1008.7 hPa | 0 mm | - | 791 W/m² | - |
| 1777907456 | 17.78° C | 59% | 1008.7 hPa | 0 mm | - | 802 W/m² | - |
| 1777907154 | 18.33° C | 53% | 1008.7 hPa | 0 mm | - | 794 W/m² | - |
| 1777906851 | 17.78° C | 56% | 1008.7 hPa | 0 mm | - | 775 W/m² | - |
| 1777906549 | 16.67° C | 57% | 1009 hPa | 0 mm | - | 763 W/m² | - |
| 1777906244 | 16.67° C | 56% | 1008.7 hPa | 0 mm | - | 268 W/m² | - |
| 1777905941 | 17.22° C | 56% | 1008.7 hPa | 0 mm | - | 336 W/m² | - |
| 1777905637 | 17.78° C | 55% | 1009 hPa | 0 mm | - | 354 W/m² | - |
| 1777905334 | 17.22° C | 56% | 1008.7 hPa | 0 mm | - | 792 W/m² | - |
| 1777905032 | 17.22° C | 54% | 1008.7 hPa | 0 mm | - | 744 W/m² | - |
| 1777904729 | 16.67° C | 55% | 1008.7 hPa | 0 mm | - | 726 W/m² | - |
| 1777904426 | 16.11° C | 55% | 1008.7 hPa | 0 mm | - | 724 W/m² | - |
| 1777904123 | 16.11° C | 55% | 1008.7 hPa | 0 mm | - | 309 W/m² | - |
| 1777903820 | 16.11° C | 55% | 1009 hPa | 0 mm | - | 336 W/m² | - |
| 1777903516 | 16.67° C | 54% | 1009 hPa | 0 mm | - | 384 W/m² | - |
| 1777903213 | 16.11° C | 55% | 1009 hPa | 0 mm | - | 557 W/m² | - |
| 1777902909 | 16.67° C | 55% | 1009 hPa | 0 mm | - | 514 W/m² | - |
| 1777902606 | 16.67° C | 56% | 1009 hPa | 0 mm | - | 741 W/m² | - |
| 1777902303 | 16.11° C | 54% | 1009.4 hPa | 0 mm | - | 714 W/m² | - |
| 1777902000 | 16.11° C | 55% | 1009.4 hPa | 0 mm | - | 488 W/m² | - |
| 1777901699 | 15.56° C | 56% | 1009 hPa | 0 mm | - | 604 W/m² | - |
| 1777901395 | 15° C | 57% | 1009.4 hPa | 0 mm | - | 579 W/m² | - |
| 1777901093 | 15° C | 58% | 1009.4 hPa | 0 mm | - | 516 W/m² | - |
* Rain latest hour (hover to see other rain measurements)
** Current wind speed in m/s (hover to see current wind gust speed)